Skip Page Navigation
NASA JPL Caltech
NASA Logo - Jet Propulsion Laboratory + View the NASA Portal
+ Near-Earth Object (NEO) Program
Search JPL
JPL Home Earth Solar System Stars & Galaxies Technology
JPL Solar System Dynamics
BODIES ORBITS EPHEMERIDES TOOLS PHYSICAL DATA DISCOVERY FAQ SITE MAP
JPL Small-Body Database Browser
Search: [ help ]  
144900 (2004 VG64)
Classification: Aten [NEO, PHA]          SPK-ID: 2144900
Ephemeris | Orbit Diagram | Orbital Elements | Physical Parameters | Discovery Circumstances | Close-Approach Data ]

[ hide orbit diagram ]
Orbit Diagram
Note: Make sure you have Java enabled on your browser to see the applet. This applet is provided as a 3D orbit visualization tool. The applet was implemented using 2-body methods, and hence should not be used for determining accurate long-term trajectories (over several years or decades) or planetary encounter circumstances. For accurate long-term ephemerides, please instead use our Horizons system.
Orbit Viewer

Additional Notes: the orbits shown in the applet are color coded. The planets are white lines, and the asteroid/comet is a blue line. The bright white line indicates the portion of the orbit that is above the ecliptic plane, and the darker portion is below the ecliptic plane. Likewise for the asteroid/comet orbit, the light blue indicates the portion above the ecliptic plane, and the dark blue the portion below the ecliptic plane.

Orbit Viewer applet originally written and kindly provided by Osamu Ajiki (AstroArts), and further modified by Ron Baalke (JPL).


Orbital Elements at Epoch 2456400.5 (2013-Apr-18.0) TDB
Reference: JPL 69 (heliocentric ecliptic J2000)
 Element Value Uncertainty (1-sigma)   Units 
e .6555789096359438 2.2555e-07  
a .9682286230577107 2.271e-08 AU
q .3334783580752255 2.2277e-07 AU
i 36.26757657295416 2.0229e-05 deg
node 208.8970518617241 2.4635e-06 deg
peri 43.89732497751812 1.6201e-05 deg
M 5.212999175628349 9.4861e-05 deg
tp 2456395.460929224634
(2013-Apr-12.96092922)
9.1521e-05 JED
period 347.9888290819221
0.95
1.2243e-05
3.352e-08
d
yr
n 1.034515966934244 3.6398e-08 deg/d
Q 1.602978888040196 3.7599e-08 AU
  Orbit Determination Parameters
   # obs. used (total)      315  
   # delay obs. used      4  
   # Doppler obs. used      2  
   data-arc span      2935 days (8.04 yr)  
   first obs. used      2004-11-13  
   last obs. used      2012-11-26  
   planetary ephem.      DE405  
   SB-pert. ephem.      SB405-CPV-2  
   condition code      0  
   fit RMS      .4937  
   data source      ORB  
   producer      Otto Matic  
   solution date      2013-Apr-29 15:39:11  

Additional Information
 Earth MOID = .028159 AU 
 T_jup = 5.899 
[ show covariance matrix ]

Ephemeris | Orbit Diagram | Orbital Elements | Physical Parameters | Discovery Circumstances | Close-Approach Data ]

Physical Parameter Table
Parameter Symbol Value Units Sigma Reference Notes
absolute magnitude H 18.195 mag .47053 69 autocmod 2.5c

144900 (2004 VG64)          Discovered 2004-Nov-13 by CSS at Catalina (703)
Reference: 20061205/Numbers.arcLast Updated: 2006-12-13

[ show close-approach data ]
Ephemeris | Orbit Diagram | Orbital Elements | Physical Parameters | Discovery Circumstances | Close-Approach Data ]
ABOUT SSD CREDITS/AWARDS PRIVACY/COPYRIGHT GLOSSARY LINKS
FirstGov 2013-May-25 08:25 UT
(server date/time)  
NASA Home Page
Site Manager:   Donald K. Yeomans
Webmaster  Alan B. Chamberlin